Sigfox identifier Datetime Temperature Humidity SNR
003C4329 2019-02-20 13:48:13 20.9 25 24.2
003C4329 2019-02-20 12:47:58 20.9 26 23.6
003C4329 2019-02-20 12:17:51 20.9 26 23.6
003C4329 2019-02-20 11:47:43 20.9 26 23.6
003C4329 2019-02-20 11:17:35 20.8 26 22.8
003C4329 2019-02-20 10:47:26 20.9 26 22.8
003C4329 2019-02-20 10:17:22 20.8 27 21.9
003C4329 2019-02-20 09:47:13 20.8 27 21.9
003C4329 2019-02-20 09:17:05 20.8 27 20.7
003C4329 2019-02-20 08:46:59 20.8 27 18.9
003C4329 2019-02-20 08:16:54 20.8 27 19
003C4329 2019-02-20 07:46:44 20.8 27 18.9
003C4329 2019-02-20 07:16:38 20.8 27 18.9
003C4329 2019-02-20 06:46:28 20.9 27 19
003C4329 2019-02-20 06:16:25 20.9 27 16.3
003C4329 2019-02-20 05:46:12 20.9 27 16.3
003C4329 2019-02-20 05:16:09 20.9 27 16.3
003C4329 2019-02-20 04:45:57 20.9 27 16.2
003C4329 2019-02-20 04:15:49 21 27 16.4
003C4329 2019-02-20 03:45:41 20.9 27 16.3
003C4329 2019-02-20 03:15:37 20.9 27 16.1
003C4329 2019-02-20 02:45:24 21 27 16.1
003C4329 2019-02-20 02:15:16 20.9 27 15.9
003C4329 2019-02-20 01:45:07 21 26 16
003C4329 2019-02-20 01:14:59 21 26 15.8
003C4329 2019-02-20 00:44:49 21 26 18.8
003C4329 2019-02-20 00:14:43 21 26 18.7
003C4329 2019-02-19 23:44:35 21 26 18.7
003C4329 2019-02-19 23:14:27 21 26 18.7
003C4329 2019-02-19 22:44:16 21 26 18.5
003C4329 2019-02-19 22:14:09 21 26 18.4
003C4329 2019-02-19 21:12:42 21.1 26 18.3
003C4329 2019-02-19 20:42:33 21.1 26 18.2
003C4329 2019-02-19 20:12:23 21.1 26 18.1
003C4329 2019-02-19 19:42:15 21.1 26 18.1
003C4329 2019-02-19 19:12:08 21.1 26 18.1
003C4329 2019-02-19 18:41:58 21.1 26 18.1
003C4329 2019-02-19 18:11:50 21.1 26 18.2
003C4329 2019-02-19 17:41:47 21.2 26 18
003C4329 2019-02-19 17:11:37 21.2 26 17.8
003C4329 2019-02-19 16:41:29 21.1 26 17.8
003C4329 2019-02-19 16:11:25 21.1 26 17.7
003C4329 2019-02-19 15:41:13 21.1 26 17.6
003C4329 2019-02-19 15:11:08 21.1 26 17.4
003C4329 2019-02-19 14:40:59 21.1 26 17.7
003C4329 2019-02-19 14:10:48 21.1 26 17.7
003C4329 2019-02-19 13:10:35 21 25 17.9
003C4329 2019-02-19 12:10:19 21 25 17.9
003C4329 2019-02-19 11:40:09 21 25 17.8
003C4329 2019-02-19 11:10:02 21 25 17.9
003C4329 2019-02-19 10:39:54 21 25 13.8
003C4329 2019-02-19 10:09:47 20.9 25 13.7
003C4329 2019-02-19 09:39:40 20.9 24 13.7
003C4329 2019-02-19 09:09:33 20.9 24 13.7
003C4329 2019-02-19 08:39:24 20.9 24 13.7
003C4329 2019-02-19 07:39:11 20.9 24 13.8
003C4329 2019-02-19 07:08:59 20.9 24 14
003C4329 2019-02-19 06:38:50 20.9 24 14
003C4329 2019-02-19 06:08:42 20.9 24 14.2
003C4329 2019-02-19 05:38:37 20.9 24 14.1
003C4329 2019-02-19 05:08:27 20.9 24 13.9
003C4329 2019-02-19 04:38:20 20.9 23 13.9
003C4329 2019-02-19 04:08:12 20.9 23 13.7
003C4329 2019-02-19 03:38:05 20.9 23 18
003C4329 2019-02-19 03:07:56 20.9 23 18
003C4329 2019-02-19 02:37:49 20.9 23 18
003C4329 2019-02-19 02:07:44 20.9 23 18.3
003C4329 2019-02-19 01:37:34 20.9 23 18.4
003C4329 2019-02-19 01:07:27 20.9 23 18.5
003C4329 2019-02-19 00:37:19 20.9 23 18.5
003C4329 2019-02-19 00:07:11 20.9 23 18.5
003C4329 2019-02-18 23:37:03 20.9 22 18.4
003C4329 2019-02-18 23:06:57 20.9 22 18.8
003C4329 2019-02-18 22:36:49 20.9 22 19
003C4329 2019-02-18 22:06:42 21 22 19.2
003C4329 2019-02-18 21:36:34 21 22 19.2
003C4329 2019-02-18 21:06:26 21.2 22 19.3
003C4329 2019-02-18 21:05:16 21 22 19.5
003C4329 2019-02-18 20:35:11 21 22 19.7
003C4329 2019-02-18 20:05:01 21 22 19.8
003C4329 2019-02-18 19:34:54 21 22 19.9
003C4329 2019-02-18 19:04:47 21 22 19.9
003C4329 2019-02-18 18:34:40 21 22 20.1
003C4329 2019-02-18 17:34:27 21 21 20.1
003C4329 2019-02-18 17:04:17 21.1 21 20.2
003C4329 2019-02-18 16:34:11 21.1 21 20.3
003C4329 2019-02-18 16:04:04 21.1 21 20.5
003C4329 2019-02-18 15:33:54 21.1 21 20.7
003C4329 2019-02-18 15:03:46 21.1 21 19.1
003C4329 2019-02-18 14:33:40 21.2 21 19.4
003C4329 2019-02-18 14:03:30 21.2 20 19.7
003C4329 2019-02-18 13:33:22 21.2 20 19.8
003C4329 2019-02-18 13:03:14 21.2 20 19.8
003C4329 2019-02-18 12:33:07 21.3 20 20.1
003C4329 2019-02-18 12:02:59 21.2 20 20.2
003C4329 2019-02-18 11:32:50 21.2 20 20.5
003C4329 2019-02-18 11:02:42 21.2 20 20.7
003C4329 2019-02-18 10:32:34 21.1 20 20.6
003C4329 2019-02-18 10:02:25 21.1 20 20.7
003C4329 2019-02-18 09:32:16 21.1 20 20.7
003C4329 2019-02-18 09:02:08 21 19 20.9
003C4329 2019-02-18 08:32:00 21 19 21
003C4329 2019-02-18 08:01:53 21 19 21.1
003C4329 2019-02-18 07:31:45 20.9 19 21.3
003C4329 2019-02-18 07:01:37 20.9 19 21.5
003C4329 2019-02-18 06:31:28 20.9 19 21.6
003C4329 2019-02-18 06:01:20 20.9 19 21.7
003C4329 2019-02-18 05:31:12 21 19 21.9
003C4329 2019-02-18 05:01:03 20.9 20 22
003C4329 2019-02-18 04:30:56 20.9 20 22.2
003C4329 2019-02-18 04:00:48 21 20 22.4
003C4329 2019-02-18 03:30:40 20.9 20 22.4
003C4329 2019-02-18 03:00:31 21 20 22.6
003C4329 2019-02-18 02:30:22 21 20 22.7
003C4329 2019-02-18 02:00:14 21 20 22.8
003C4329 2019-02-18 01:30:05 21 20 22.8
003C4329 2019-02-18 00:59:56 21 20 22.8
003C4329 2019-02-18 00:29:46 21 20 22.9
003C4329 2019-02-17 23:59:37 21 20 22.9
003C4329 2019-02-17 23:29:29 21 20 22.9
003C4329 2019-02-17 22:59:21 21 20 22.8
003C4329 2019-02-17 22:29:13 21 20 22.8
003C4329 2019-02-17 21:59:04 21 20 22.8
003C4329 2019-02-17 21:28:56 21.1 21 22.8
003C4329 2019-02-17 20:58:47 21 21 22.8
003C4329 2019-02-17 20:28:39 21.3 20 22.8
003C4329 2019-02-17 20:27:29 21.1 21 22.9
003C4329 2019-02-17 19:57:21 21.1 21 22.8
003C4329 2019-02-17 19:27:13 21.1 21 22.8
003C4329 2019-02-17 18:57:05 21.1 21 22.8
003C4329 2019-02-17 18:26:57 21.1 21 22.8
003C4329 2019-02-17 17:56:48 21.1 21 22.8
003C4329 2019-02-17 17:26:40 21.1 21 22.6
003C4329 2019-02-17 16:56:32 21.1 21 22.6
003C4329 2019-02-17 16:26:24 21.1 21 22.5
003C4329 2019-02-17 15:56:17 21.1 21 22.5
003C4329 2019-02-17 15:26:10 21.1 21 22.5
003C4329 2019-02-17 14:56:02 21.1 22 22.5
003C4329 2019-02-17 14:25:54 21.1 22 22.5
003C4329 2019-02-17 13:55:46 21.2 22 22.5
003C4329 2019-02-17 13:25:39 21.1 22 22.5
003C4329 2019-02-17 12:55:32 21.1 22 22.5
003C4329 2019-02-17 12:25:24 21.1 22 22.7
003C4329 2019-02-17 11:55:17 21.1 22 22.6
003C4329 2019-02-17 11:25:09 21.1 22 22.6
003C4329 2019-02-17 10:55:01 21.1 22 22.8
003C4329 2019-02-17 10:24:54 21.1 22 22.8
003C4329 2019-02-17 09:54:45 21.1 22 23
003C4329 2019-02-17 09:24:37 21.1 23 23
003C4329 2019-02-17 08:54:28 21.1 23 23
003C4329 2019-02-17 08:24:21 21.1 23 23
003C4329 2019-02-17 07:54:13 21.1 23 23
003C4329 2019-02-17 07:24:06 21.1 23 23.1
003C4329 2019-02-17 06:53:58 21.1 23 23
003C4329 2019-02-17 06:23:50 21.1 23 23
003C4329 2019-02-17 05:53:42 21.1 23 23.1
003C4329 2019-02-17 05:23:36 21.2 24 23.1
003C4329 2019-02-17 04:53:27 21.2 24 23.2
003C4329 2019-02-17 04:23:19 21.1 24 23.3
003C4329 2019-02-17 03:53:11 21.1 24 23.4
003C4329 2019-02-17 03:23:03 21.2 24 23.3
003C4329 2019-02-17 02:52:55 21.1 24 23.3
003C4329 2019-02-17 02:22:46 21.2 24 23.4
003C4329 2019-02-17 01:52:36 21.2 24 23.3
003C4329 2019-02-17 01:22:29 21.2 25 23.3
003C4329 2019-02-17 00:52:19 21.2 25 23.2
003C4329 2019-02-17 00:22:11 21.2 25 23.2
003C4329 2019-02-16 23:52:04 21.2 25 23.1
003C4329 2019-02-16 23:21:55 21.2 25 23.1
003C4329 2019-02-16 22:51:46 21.2 25 23.2
003C4329 2019-02-16 22:21:37 21.2 25 23.1
003C4329 2019-02-16 21:51:30 21.2 25 23.1
003C4329 2019-02-16 21:21:22 21.2 25 23.1
003C4329 2019-02-16 20:51:15 21.2 25 23
003C4329 2019-02-16 20:21:07 21.2 25 22.9
003C4329 2019-02-16 19:50:58 21.5 25 23
003C4329 2019-02-16 19:49:48 21.2 25 23
003C4329 2019-02-16 19:19:40 21.2 25 22.9
003C4329 2019-02-16 18:49:32 21.2 25 22.9
003C4329 2019-02-16 18:19:23 21.3 25 23
003C4329 2019-02-16 17:49:16 21.3 25 23
003C4329 2019-02-16 17:19:07 21.3 25 23
003C4329 2019-02-16 16:48:58 21.3 25 23
003C4329 2019-02-16 16:18:50 21.3 25 22.9
003C4329 2019-02-16 15:48:42 21.3 25 22.7
003C4329 2019-02-16 15:18:34 21.3 25 22.7
003C4329 2019-02-16 14:48:24 21.3 25 22.6
003C4329 2019-02-16 14:18:16 21.3 25 22.6
003C4329 2019-02-16 13:48:08 21.3 25 22.5
003C4329 2019-02-16 13:18:00 21.3 25 22.6
003C4329 2019-02-16 12:47:51 21.2 25 22.6
003C4329 2019-02-16 12:17:42 21.2 25 22.7
003C4329 2019-02-16 11:47:34 21.2 25 22.5
003C4329 2019-02-16 11:17:27 21.2 25 22.5
003C4329 2019-02-16 10:47:19 21.2 25 22.5
003C4329 2019-02-16 10:17:12 21.2 25 22.4
003C4329 2019-02-16 09:47:03 21.2 25 22.5
003C4329 2019-02-16 09:16:56 21.2 25 22.3
003C4329 2019-02-16 08:46:48 21.2 25 22.5
003C4329 2019-02-16 08:16:41 21.2 25 22.6
003C4329 2019-02-16 07:46:32 21.2 25 22.6
003C4329 2019-02-16 07:16:24 21.2 25 22.7
003C4329 2019-02-16 06:46:15 21.2 26 22.7
003C4329 2019-02-16 06:16:09 21.2 26 22.7
003C4329 2019-02-16 05:46:02 21.2 25 22.7
003C4329 2019-02-16 05:15:54 21.2 25 22.7
003C4329 2019-02-16 04:45:46 21.2 25 22.6
003C4329 2019-02-16 04:15:39 21.2 25 22.6
003C4329 2019-02-16 03:45:32 21.3 25 22.5
003C4329 2019-02-16 03:15:25 21.3 25 22.6
003C4329 2019-02-16 02:45:18 21.3 25 22.5
003C4329 2019-02-16 02:15:10 21.3 25 22.5
003C4329 2019-02-16 01:45:02 21.3 25 22.5
003C4329 2019-02-16 01:14:54 21.3 25 22.5
003C4329 2019-02-16 00:44:46 21.3 25 22.3
003C4329 2019-02-16 00:14:37 21.4 25 22.4
003C4329 2019-02-15 23:44:30 21.4 25 22.3
003C4329 2019-02-15 23:14:22 21.5 25 22.5
003C4329 2019-02-15 22:44:14 21.5 25 22.4
003C4329 2019-02-15 22:14:05 21.5 25 22.4
003C4329 2019-02-15 21:43:57 21.6 25 22.3
003C4329 2019-02-15 21:13:49 21.6 25 22.2
003C4329 2019-02-15 20:43:40 21.7 25 22.2
003C4329 2019-02-15 20:13:32 21.7 25 22.2
003C4329 2019-02-15 19:43:22 21.7 25 22.2
003C4329 2019-02-15 19:13:13 22 25 22.2
003C4329 2019-02-15 19:12:02 21.7 25 22.1
003C4329 2019-02-15 18:41:53 21.7 25 22.1
003C4329 2019-02-15 18:11:43 21.7 25 22.1
003C4329 2019-02-15 17:41:34 21.7 25 22.1
003C4329 2019-02-15 17:11:24 21.7 25 22
003C4329 2019-02-15 16:41:16 21.6 25 22
003C4329 2019-02-15 16:11:07 21.7 25 22.1
003C4329 2019-02-15 15:40:59 21.6 24 22.2
003C4329 2019-02-15 15:10:51 21.7 24 22.2
003C4329 2019-02-15 14:40:42 21.6 24 22.4
003C4329 2019-02-15 14:10:33 21.6 25 22.4
003C4329 2019-02-15 13:40:24 21.6 25 22.4
003C4329 2019-02-15 13:10:16 21.6 25 22.5
003C4329 2019-02-15 12:40:07 21.6 25 22.6
003C4329 2019-02-15 12:09:59 21.5 25 22.6
003C4329 2019-02-15 11:39:51 21.5 25 22.5
003C4329 2019-02-15 11:09:43 21.5 25 22.4
003C4329 2019-02-15 10:39:35 21.5 25 22.5
003C4329 2019-02-15 10:09:28 21.4 25 22.6
003C4329 2019-02-15 09:39:20 21.4 25 22.6
003C4329 2019-02-15 09:09:10 21.4 25 22.7
003C4329 2019-02-15 08:39:01 21.4 25 22.7
003C4329 2019-02-15 08:08:54 21.4 25 22.6
003C4329 2019-02-15 07:38:44 21.4 25 22.5
003C4329 2019-02-15 07:08:36 21.4 25 22.5
003C4329 2019-02-15 06:38:27 21.4 25 22.5
003C4329 2019-02-15 06:08:18 21.4 25 23.2
003C4329 2019-02-15 05:38:09 21.4 25 23.1
003C4329 2019-02-15 05:08:01 21.4 25 23.2
003C4329 2019-02-15 04:37:53 21.4 25 23
003C4329 2019-02-15 04:07:44 21.4 25 23.1
003C4329 2019-02-15 03:37:35 21.4 25 23
003C4329 2019-02-15 03:07:27 21.4 25 23
003C4329 2019-02-15 02:37:17 21.4 25 22.9
003C4329 2019-02-15 02:07:08 21.4 25 22.8
003C4329 2019-02-15 01:36:59 21.5 25 22.8
003C4329 2019-02-15 01:06:49 21.5 25 22.6
003C4329 2019-02-15 00:36:40 21.5 25 22.4
003C4329 2019-02-15 00:06:30 21.5 25 22.3
003C4329 2019-02-14 23:36:21 21.5 25 22.3
003C4329 2019-02-14 23:06:12 21.5 25 22.3
003C4329 2019-02-14 22:36:02 21.6 25 22.3
003C4329 2019-02-14 22:05:54 21.6 25 23
003C4329 2019-02-14 21:35:45 21.6 25 22.8
003C4329 2019-02-14 21:05:34 21.7 24 22.7
003C4329 2019-02-14 20:35:26 21.7 24 22.7
003C4329 2019-02-14 20:05:16 21.8 24 22.6
003C4329 2019-02-14 19:35:06 21.8 24 22.5
003C4329 2019-02-14 19:04:57 21.8 24 23.3
003C4329 2019-02-14 18:34:47 22.1 24 23.2
003C4329 2019-02-14 18:33:37 21.9 24 23.1
003C4329 2019-02-14 18:03:28 21.8 24 22.2
003C4329 2019-02-14 17:33:19 21.8 24 22.1
003C4329 2019-02-14 17:03:10 21.9 24 21.9
003C4329 2019-02-14 16:33:01 21.9 25 22
003C4329 2019-02-14 16:02:52 21.8 24 22
003C4329 2019-02-14 15:32:43 21.8 24 21.9
003C4329 2019-02-14 15:02:34 21.8 24 21.8
003C4329 2019-02-14 14:32:26 21.7 24 21.8
003C4329 2019-02-14 14:02:18 21.7 23 21.7
003C4329 2019-02-14 13:32:08 21.6 23 21.7
003C4329 2019-02-14 13:02:00 21.6 23 21.8
003C4329 2019-02-14 12:31:51 21.5 23 21.9
003C4329 2019-02-14 12:01:44 21.4 23 21.8
003C4329 2019-02-14 11:31:37 21.3 23 21.6
003C4329 2019-02-14 11:01:29 21.3 23 21.7
003C4329 2019-02-14 10:31:20 21.1 24 21.7
003C4329 2019-02-14 10:01:13 21 24 20.5
003C4329 2019-02-14 09:31:05 21 23 20.5
003C4329 2019-02-14 09:00:59 21 24 20.6
003C4329 2019-02-14 08:30:50 21 24 20.6
003C4329 2019-02-14 08:00:42 21 24 20.7
003C4329 2019-02-14 07:30:34 21 25 20.6
003C4329 2019-02-14 07:00:26 21 25 18.8
003C4329 2019-02-14 06:30:19 21 26 19
003C4329 2019-02-14 06:00:11 21 26 19.2
003C4329 2019-02-14 05:30:03 21 26 19.2
003C4329 2019-02-14 04:59:55 21 26 19.3
003C4329 2019-02-14 04:29:47 21 26 19.2
003C4329 2019-02-14 03:59:38 21 25 19.4
003C4329 2019-02-14 03:29:30 21 25 19.6
003C4329 2019-02-14 02:59:21 21 25 19.8
003C4329 2019-02-14 02:29:13 21 25 19.8
003C4329 2019-02-14 01:59:05 21 25 19.9
003C4329 2019-02-14 01:28:57 21 25 20
003C4329 2019-02-14 00:58:49 21.1 25 19.8
003C4329 2019-02-14 00:28:40 21.1 25 19.6
003C4329 2019-02-13 23:58:32 21.1 25 19.8
003C4329 2019-02-13 23:28:24 21.2 25 19.9
003C4329 2019-02-13 22:58:17 21.2 25 20
003C4329 2019-02-13 22:28:09 21.3 25 20
003C4329 2019-02-13 21:58:01 21.3 25 20
003C4329 2019-02-13 21:27:53 21.4 25 20
003C4329 2019-02-13 20:57:44 21.4 25 20
003C4329 2019-02-13 20:27:36 21.5 25 20.1
003C4329 2019-02-13 19:57:27 21.5 25 20
003C4329 2019-02-13 19:27:17 21.5 25 20.1
003C4329 2019-02-13 18:57:09 21.6 25 20.1
003C4329 2019-02-13 18:27:00 21.6 25 20.1
003C4329 2019-02-13 17:56:50 21.9 27 20.1
003C4329 2019-02-13 17:55:39 21.7 27 20.2
003C4329 2019-02-13 17:25:30 21.6 26 20.1
003C4329 2019-02-13 16:55:20 21.6 27 20.3
003C4329 2019-02-13 16:25:11 21.5 26 20.4
003C4329 2019-02-13 15:55:04 21.4 26 20.3
003C4329 2019-02-13 15:24:53 21.3 26 20.1
003C4329 2019-02-13 14:54:45 21.2 26 19.9
003C4329 2019-02-13 14:24:37 21.2 25 20
003C4329 2019-02-13 13:54:29 21.2 24 19.9
003C4329 2019-02-13 13:24:21 21.3 24 19.9
003C4329 2019-02-13 12:54:12 21.3 25 20
003C4329 2019-02-13 12:24:05 21.3 24 20.1
003C4329 2019-02-13 11:53:56 21.3 25 19.9
003C4329 2019-02-13 11:23:49 21.2 25 19.9
003C4329 2019-02-13 10:53:41 21 25 19.8
003C4329 2019-02-13 10:23:33 21 24 19.7
003C4329 2019-02-13 09:53:25 21 24 19.6
003C4329 2019-02-13 09:23:17 21 23 19.8
003C4329 2019-02-13 08:53:10 21 22 19.8
003C4329 2019-02-13 08:23:03 21 21 19.8
003C4329 2019-02-13 07:52:57 20.9 20 19.8
003C4329 2019-02-13 07:22:49 20.9 19 19.8
003C4329 2019-02-13 06:52:41 21 19 19.8
003C4329 2019-02-13 06:22:33 21 19 19.9
003C4329 2019-02-13 05:52:25 21 19 19.6
003C4329 2019-02-13 05:22:17 21 19 19.4
003C4329 2019-02-13 04:52:09 21 19 19.5
003C4329 2019-02-13 04:22:01 21 19 20.8
003C4329 2019-02-13 03:51:52 21 19 20.9
003C4329 2019-02-13 03:21:44 21 19 20.9
003C4329 2019-02-13 02:51:36 21 19 21.1
003C4329 2019-02-13 02:21:27 21.1 18 21.1
003C4329 2019-02-13 01:51:18 21.1 18 21
003C4329 2019-02-13 01:21:09 21.1 18 20.9
003C4329 2019-02-13 00:51:00 21.1 18 20.8
003C4329 2019-02-13 00:20:52 21.1 19 20.8
003C4329 2019-02-12 23:50:44 21.1 19 20.9
003C4329 2019-02-12 23:20:35 21.2 19 21
003C4329 2019-02-12 22:50:27 21.2 19 21.2
003C4329 2019-02-12 22:20:18 21.2 18 21.2
003C4329 2019-02-12 21:50:10 21.3 18 21.2
003C4329 2019-02-12 21:20:03 21.3 20 21.3
003C4329 2019-02-12 20:49:56 21.4 21 21.1
003C4329 2019-02-12 20:19:47 21.4 21 21.1
003C4329 2019-02-12 19:49:37 21.4 21 21.1
003C4329 2019-02-12 19:19:29 21.4 20 21.1
003C4329 2019-02-12 18:49:21 21.3 20 21.1
003C4329 2019-02-12 18:19:12 21.3 18 21.1
003C4329 2019-02-12 17:49:04 21.3 18 21.1
003C4329 2019-02-12 17:18:56 21.6 18 21.3
003C4329 2019-02-12 17:17:46 21.4 18 21.3
003C4329 2019-02-12 16:47:38 21.5 18 21.4
003C4329 2019-02-12 16:17:29 21.6 18 20.1
003C4329 2019-02-12 15:47:20 21.6 18 20
003C4329 2019-02-12 15:17:11 21.5 18 19.8
003C4329 2019-02-12 14:47:02 21.5 19 19.5
003C4329 2019-02-12 14:16:54 21.4 19 19.4
003C4329 2019-02-12 13:46:45 21.4 18 19.4
003C4329 2019-02-12 13:16:37 21.4 18 19.4
003C4329 2019-02-12 12:46:28 21.4 18 19.5
003C4329 2019-02-12 12:16:20 21.4 18 19.5
003C4329 2019-02-12 11:46:12 21.4 19 19.4
003C4329 2019-02-12 11:16:03 21.3 19 19.2
003C4329 2019-02-12 10:45:54 21.3 20 18.8
003C4329 2019-02-12 10:15:44 21.2 21 18.9
003C4329 2019-02-12 09:45:35 21.1 22 18.9
003C4329 2019-02-12 09:15:25 21.1 23 18.9
003C4329 2019-02-12 08:45:16 21 23 19
003C4329 2019-02-12 08:15:08 21 23 18.8
003C4329 2019-02-12 07:45:00 21 24 18.7
003C4329 2019-02-12 07:14:52 21 26 18.7
003C4329 2019-02-12 06:44:44 21 26 18.5
003C4329 2019-02-12 06:14:34 21 26 18.6
003C4329 2019-02-12 05:44:24 21 26 18.6
003C4329 2019-02-12 05:14:14 21 27 18.3
003C4329 2019-02-12 04:44:05 21 27 18.2
003C4329 2019-02-12 04:13:56 21 27 18.1
003C4329 2019-02-12 03:43:47 21.1 27 18
003C4329 2019-02-12 03:13:39 21 27 18
003C4329 2019-02-12 02:43:30 21.1 27 18.1
003C4329 2019-02-12 02:13:21 21.1 27 18.2
003C4329 2019-02-12 01:43:12 21.1 27 18.2
003C4329 2019-02-12 01:13:03 21.1 27 18.2
003C4329 2019-02-12 00:42:53 21.2 27 18.5
003C4329 2019-02-12 00:12:43 21.2 27 18.4
003C4329 2019-02-11 23:42:32 21.2 27 18.3
003C4329 2019-02-11 23:12:23 21.3 27 18.4
003C4329 2019-02-11 22:42:14 21.3 27 18.4
003C4329 2019-02-11 22:12:04 21.4 27 18.6
003C4329 2019-02-11 21:41:55 21.5 27 18.6
003C4329 2019-02-11 21:11:45 21.5 27 18.4
003C4329 2019-02-11 20:41:35 21.7 27 18.2
003C4329 2019-02-11 20:11:25 21.7 27 17.9
003C4329 2019-02-11 19:41:15 21.9 27 18.3
003C4329 2019-02-11 19:11:04 22 27 18.3
003C4329 2019-02-11 18:40:56 22.1 27 18.2
003C4329 2019-02-11 18:10:44 22.3 27 19
003C4329 2019-02-11 17:40:33 22.4 28 18.2
003C4329 2019-02-11 17:10:23 22.4 28 17.6
003C4329 2019-02-11 16:40:12 22.5 30 0